Home   Weather   Grimstad   Past weeks

Flag for Norway Past Weather in Grimstad, Norway — Yesterday and Last 2 Weeks

Now
58 °F

Refreshingly cool.


Feels Like: 56 °F
Forecast: 48 / 58 °F
Wind: 10 mph from West

Location: Torungen Fyr

Current Time: Sep 30, 2016 at 5:27:17 PM

Latest Report: Sep 30, 2016 at 4:00 PM


Visibility: N/A

Pressure: 29.54 "Hg

Humidity: 53%

Dew Point: 41 °F

Location of GrimstadLocation

Past Weather in Grimstad — Graph

°F

Grimstad Temperature Yesterday

Maximum temperature yesterday: 62 °F (at 5:00 AM)
Minimum temperature yesterday: 53 °F (at 11:00 PM)
Average temperature yesterday: 58 °F

High & Low Weather Summary for the Past Weeks

 TemperatureHumidityPressure
High68 °F (Sep 15, 4:00 PM)98% (Sep 17, 6:00 AM)30.26 "Hg (Sep 17, 6:00 AM)
Low50 °F (Sep 30, 8:00 AM)49% (Sep 23, 4:00 PM)29.23 "Hg (Sep 29, 5:00 PM)
Average60 °F83%30.02 "Hg
* Reported Sep 15 4:00 PM — Sep 30 4:00 PM, Grimstad, Weather by CustomWeather, © 2016

Note: Actual official high and low records may vary slightly from our data, if they occured in-between our weather recording intervals... More about our weather records

Advertising

Grimstad Weather History for the Previous 24 Hours

Scroll right to see more
 ConditionsComfort  
Time TempWeatherWind HumidityBarometerVisibility
4:00 PM
Fri, Sep 30
58 °FRefreshingly cool.10 mph53%29.54 "HgN/A
3:00 PM58 °FRefreshingly cool.8 mph56%29.54 "HgN/A
2:00 PM58 °FRefreshingly cool.13 mph55%29.54 "HgN/A
1:00 PM57 °FRefreshingly cool.10 mph59%29.54 "HgN/A
12:00 PM55 °FCool.10 mph62%29.54 "HgN/A
11:00 AM54 °FCool.10 mph65%29.54 "HgN/A
10:00 AM52 °FCool.10 mph70%29.53 "HgN/A
8:00 AM50 °FCool.12 mph79%29.50 "HgN/A
6:00 AM50 °FCool.10 mph76%29.47 "HgN/A
5:00 AM50 °FCool.9 mph76%29.44 "HgN/A
4:00 AM51 °FCool.9 mph76%29.41 "HgN/A
3:00 AM51 °FCool.10 mph73%29.41 "HgN/A
2:00 AM51 °FCool.9 mph75%29.38 "HgN/A
1:00 AM52 °FCool.12 mph73%29.35 "HgN/A
12:00 AM53 °FCool.14 mph76%29.32 "HgN/A
11:00 PM
Thu, Sep 29
53 °FCool.12 mph77%29.32 "HgN/A
10:00 PM54 °FCool.17 mph75%29.26 "HgN/A
9:00 PM54 °FCool.20 mph76%29.23 "HgN/A
8:00 PM55 °FCool.17 mph74%29.26 "HgN/A
7:00 PM55 °FCool.16 mph80%29.23 "HgN/A
6:00 PM58 °FCool.20 mph70%29.26 "HgN/A
5:00 PM59 °FCool.22 mph67%29.23 "HgN/A
Weather by CustomWeather, © 2016

See weather overviewHow to use our weather pages